Regional Weather Roundup
Issued by NWS

Home | Current Version | Previous Version | Text Only | Print | Product List | Glossary On
Versions: 1 2 3 4 5 6 7 8 9 10 11 12 13 14 15 16 17 18 19 20 21 22 23 24 25 26 27 28 29 30 31 32 33 34 35 36 37 38 39 40 41 42 43 44 45 46 47 48 49 50
000
ASUS44 KJAN 310003
RWRMS

MISSISSIPPI HOURLY WEATHER ROUNDUP
NATIONAL WEATHER SERVICE JACKSON MS
700 PM CDT THU JUL 30 2015

NOTE: "FAIR: INDICATES FEW OR NO CLOUDS BELOW 12,000 FEET WITH NO
SIGNIFICANT WEATHER AND/OR OBSTRUCTIONS TO VISIBILITY.

MSZ001>002-007>008-010>013-018>021-025>028-034>036-310100-
NORTHWEST MISSISSIPPI

CITY           SKY/WX    TMP DP  RH WIND       PRES   REMARKS
CLARKSDALE     FAIR      86  64  48 N13       30.04R
CLEVELAND      FAIR      85  67  55 N15       30.01R
GREENWOOD      SUNNY     89  73  59 N7        29.99R HX  97
6HR MIN TEMP:  89; 6HR MAX TEMP:  95;

GREENVILLE     SUNNY     87  70  56 N13       30.00R HX  92
6HR MIN TEMP:  87; 6HR MAX TEMP:  95;

OLIVE BRANCH   MOSUNNY   84  63  48 N12       30.06R
OXFORD         FAIR      84  63  48 N8        30.05R
TUNICA         CLEAR     82  63  51 N9        30.05R
$$

MSZ003>006-009-014>017-022>024-029>033-037>039-310100-
NORTHEAST MISSISSIPPI

CITY           SKY/WX    TMP DP  RH WIND       PRES   REMARKS
COLUMBUS AFB   NOT AVBL
CORINTH        FAIR      84  63  48 N6        30.03R
GOLDN TRIANGLE SUNNY     91  72  52 N14G21    29.97R HX  98
STARKVILLE     FAIR      88  70  55 N8        29.99R HX  92
TUPELO         SUNNY     85  64  49 NE12      30.01R
6HR MIN TEMP:  85; 6HR MAX TEMP:  91;

$$

MSZ040-058-310100-
CENTRAL MISSISSIPPI

CITY           SKY/WX    TMP DP  RH WIND       PRES   REMARKS
JACKSON INTL   PTSUNNY   88  77  69 CALM      29.96R HX 100
6HR MIN TEMP:  81; 6HR MAX TEMP: 101; 6HR PCP:  0.10;

JACKSON HAWKNS PTSUNNY   92  73  53 N9        29.97R HX 100
6HR MIN TEMP:  81; 6HR MAX TEMP: 100; 6HR PCP:  0.23;

MERIDIAN KEY   PTSUNNY   91  74  57 N10       29.95R HX 100
6HR MIN TEMP:  90; 6HR MAX TEMP:  96;

MERIDIAN NAS   PTCLDY    91  73  55 N8        29.95R HX  99
6HR MIN TEMP:  85; 6HR MAX TEMP:  96;

VICKSBURG      MOSUNNY   92  75  57 N8        29.97R HX 103
6HR MIN TEMP:  91; 6HR MAX TEMP: 100;

$$

MSZ059>079-310100-
SOUTH MISSISSIPPI

CITY           SKY/WX    TMP DP  RH WIND       PRES   REMARKS
BROOKHAVEN       N/A     73  73 100 SW7       30.01F
HATTIESBURG    CLOUDY    78  73  84 N5        29.97R
6HR MIN TEMP:  75; 6HR MAX TEMP:  98; 6HR PCP:  0.63;

MCCOMB         CLOUDY    78  75  90 W6        30.00S
6HR MIN TEMP:  76; 6HR MAX TEMP:  96; 6HR PCP:  0.05;

NATCHEZ        CLOUDY    79  73  83 CALM      30.01R
6HR MIN TEMP:  77; 6HR MAX TEMP:  97; 6HR PCP:  0.13;

PINE BELT      CLOUDY    75  72  88 N3        29.99R
6HR MIN TEMP:  72; 6HR MAX TEMP:  95; 6HR PCP:  0.65;

$$

MSZ080>082-310100-
COASTAL MISSISSIPPI

CITY           SKY/WX    TMP DP  RH WIND       PRES   REMARKS
BAY ST LOUIS   MOSUNNY   75  70  83 NW3       29.94S
BILOXI         MOCLDY    79  75  89 SW9       29.93R THUNDER
PASCAGOULA     HVY RAIN  80  76  87 N21G40    29.94R FOG
6HR MIN TEMP:  83; 6HR MAX TEMP:  97;

GULFPORT       CLOUDY    78  74  87 SW5       29.93R
6HR MIN TEMP:  77; 6HR MAX TEMP:  96; 6HR PCP:  0.90;

$$



USA.gov is the U.S. government's official web portal to all federal, state and local government web resources and services.